Time,TemperatureF,DewpointF,PressureIn,WindDirection,WindDirectionDegrees,WindSpeedMPH,WindSpeedGustMPH,Humidity,HourlyPrecipIn,Conditions,Clouds,dailyrainin,SoftwareType,DateUTC
2013-03-04 00:00:00,28.4,20.2,29.97,South,180,0.0,0.0,71,0.00,,---,0.00,VWS V14.01,2013-03-04 05:00:00,
2013-03-04 00:01:00,29.7,20.1,29.97,South,180,0.0,0.0,67,0.00,,---,0.00,VWS V14.01,2013-03-04 05:01:00,
2013-03-04 00:02:00,29.7,20.1,29.97,South,180,0.0,0.0,67,0.00,,---,0.00,VWS V14.01,2013-03-04 05:02:00,
2013-03-04 00:05:00,28.2,20.4,29.97,South,180,0.0,0.0,72,0.00,,---,0.00,VWS V14.01,2013-03-04 05:05:00,
2013-03-04 00:07:00,29.7,20.4,29.97,South,180,0.0,0.0,68,0.00,,---,0.00,VWS V14.01,2013-03-04 05:07:00,
2013-03-04 00:10:00,28.8,20.6,29.97,South,180,0.0,0.0,71,0.00,,---,0.00,VWS V14.01,2013-03-04 05:10:00,
2013-03-04 00:12:00,29.5,20.2,29.97,South,180,0.0,0.0,68,0.00,,---,0.00,VWS V14.01,2013-03-04 05:12:00,
2013-03-04 00:15:00,28.9,20.7,29.97,South,180,0.0,0.0,71,0.00,,---,0.00,VWS V14.01,2013-03-04 05:15:00,
2013-03-04 00:17:00,29.8,20.6,29.97,South,180,0.0,0.0,68,0.00,,---,0.00,VWS V14.01,2013-03-04 05:17:00,
2013-03-04 00:20:00,28.8,20.6,29.97,South,180,0.0,0.0,71,0.00,,---,0.00,VWS V14.01,2013-03-04 05:20:00,
2013-03-04 00:22:00,29.8,20.6,29.97,South,180,0.0,0.0,68,0.00,,---,0.00,VWS V14.01,2013-03-04 05:22:00,
2013-03-04 00:25:00,28.8,20.9,29.97,South,180,0.0,0.0,72,0.00,,---,0.00,VWS V14.01,2013-03-04 05:25:00,
2013-03-04 00:27:00,29.8,20.6,29.97,South,180,0.0,0.0,68,0.00,,---,0.00,VWS V14.01,2013-03-04 05:27:00,
2013-03-04 00:30:00,28.6,20.7,29.97,South,180,0.0,0.0,72,0.00,,---,0.00,VWS V14.01,2013-03-04 05:30:00,
2013-03-04 00:32:00,29.5,20.2,29.97,South,180,0.0,0.0,68,0.00,,---,0.00,VWS V14.01,2013-03-04 05:32:00,
2013-03-04 00:35:00,28.6,20.7,29.97,South,180,0.0,0.0,72,0.00,,---,0.00,VWS V14.01,2013-03-04 05:35:00,
2013-03-04 00:36:00,29.3,20.4,29.97,South,180,0.0,0.0,69,0.00,,---,0.00,VWS V14.01,2013-03-04 05:36:00,
2013-03-04 00:40:00,28.2,20.7,29.97,South,180,0.0,0.0,73,0.00,,---,0.00,VWS V14.01,2013-03-04 05:40:00,
2013-03-04 00:41:00,29.3,20.4,29.97,South,180,0.0,0.0,69,0.00,,---,0.00,VWS V14.01,2013-03-04 05:41:00,
2013-03-04 00:45:00,27.9,20.3,30.00,South,180,0.0,0.0,73,0.00,,---,0.00,VWS V14.01,2013-03-04 05:45:00,
2013-03-04 00:46:00,29.1,20.6,30.00,South,180,0.0,0.0,70,0.00,,---,0.00,VWS V14.01,2013-03-04 05:46:00,
2013-03-04 00:50:00,27.7,20.2,30.00,South,180,0.0,0.0,73,0.00,,---,0.00,VWS V14.01,2013-03-04 05:50:00,
2013-03-04 00:51:00,28.8,20.2,30.00,South,180,0.0,0.0,70,0.00,,---,0.00,VWS V14.01,2013-03-04 05:51:00,
2013-03-04 00:55:00,27.5,20.0,30.00,South,180,0.0,0.0,73,0.00,,---,0.00,VWS V14.01,2013-03-04 05:55:00,
2013-03-04 00:56:00,28.6,20.4,30.00,South,180,0.0,0.0,71,0.00,,---,0.00,VWS V14.01,2013-03-04 05:56:00,
2013-03-04 01:00:00,27.3,19.8,30.00,SSE,158,0.0,0.0,73,0.00,,---,0.00,VWS V14.01,2013-03-04 06:00:00,
2013-03-04 01:01:00,28.4,20.2,29.97,South,180,0.0,0.0,71,0.00,,---,0.00,VWS V14.01,2013-03-04 06:01:00,
2013-03-04 01:05:00,27.1,19.6,30.00,SE,135,0.0,0.0,73,0.00,,---,0.00,VWS V14.01,2013-03-04 06:05:00,
2013-03-04 01:06:00,28.2,20.4,29.97,South,180,0.0,0.0,72,0.00,,---,0.00,VWS V14.01,2013-03-04 06:06:00,
2013-03-04 01:10:00,27.0,19.5,30.00,SE,135,0.0,0.0,73,0.00,,---,0.00,VWS V14.01,2013-03-04 06:10:00,
2013-03-04 01:11:00,28.8,20.6,29.97,South,180,0.0,0.0,71,0.00,,---,0.00,VWS V14.01,2013-03-04 06:11:00,
2013-03-04 01:15:00,27.1,20.0,29.97,SE,135,0.0,0.0,74,0.00,,---,0.00,VWS V14.01,2013-03-04 06:15:00,
2013-03-04 01:16:00,28.9,20.7,29.97,South,180,0.0,0.0,71,0.00,,---,0.00,VWS V14.01,2013-03-04 06:16:00,
2013-03-04 01:20:00,27.5,20.0,29.97,SE,135,0.0,0.0,73,0.00,,---,0.00,VWS V14.01,2013-03-04 06:20:00,
2013-03-04 01:21:00,28.8,20.6,29.97,South,180,0.0,0.0,71,0.00,,---,0.00,VWS V14.01,2013-03-04 06:21:00,
2013-03-04 01:25:00,27.0,19.8,29.97,SE,135,0.0,0.0,74,0.00,,---,0.00,VWS V14.01,2013-03-04 06:25:00,
2013-03-04 01:26:00,28.8,20.9,29.97,South,180,0.0,0.0,72,0.00,,---,0.00,VWS V14.01,2013-03-04 06:26:00,
2013-03-04 01:30:00,26.8,19.6,29.97,East,90,0.0,0.0,74,0.00,,---,0.00,VWS V14.01,2013-03-04 06:30:00,
2013-03-04 01:31:00,28.6,20.7,29.97,South,180,0.0,0.0,72,0.00,,---,0.00,VWS V14.01,2013-03-04 06:31:00,
2013-03-04 01:35:00,27.0,19.8,29.97,East,90,0.0,0.0,74,0.00,,---,0.00,VWS V14.01,2013-03-04 06:35:00,
2013-03-04 01:36:00,28.6,20.7,29.97,South,180,0.0,0.0,72,0.00,,---,0.00,VWS V14.01,2013-03-04 06:36:00,
2013-03-04 01:40:00,27.3,20.1,29.97,East,90,0.0,0.0,74,0.00,,---,0.00,VWS V14.01,2013-03-04 06:40:00,
2013-03-04 01:41:00,28.2,20.7,29.97,South,180,0.0,0.0,73,0.00,,---,0.00,VWS V14.01,2013-03-04 06:41:00,
2013-03-04 01:45:00,27.0,20.1,29.97,East,90,0.0,0.0,75,0.00,,---,0.00,VWS V14.01,2013-03-04 06:45:00,
2013-03-04 01:46:00,27.9,20.3,30.00,South,180,0.0,0.0,73,0.00,,---,0.00,VWS V14.01,2013-03-04 06:46:00,
2013-03-04 01:50:00,26.8,19.9,29.97,East,90,0.0,0.0,75,0.00,,---,0.00,VWS V14.01,2013-03-04 06:50:00,
2013-03-04 01:51:00,27.7,20.2,30.00,South,180,0.0,0.0,73,0.00,,---,0.00,VWS V14.01,2013-03-04 06:51:00,
2013-03-04 01:55:00,26.6,19.8,29.97,East,90,0.0,0.0,75,0.00,,---,0.00,VWS V14.01,2013-03-04 06:55:00,
2013-03-04 01:56:00,27.5,20.0,30.00,South,180,0.0,0.0,73,0.00,,---,0.00,VWS V14.01,2013-03-04 06:56:00,
2013-03-04 02:00:00,26.6,20.1,29.97,East,90,0.0,0.0,76,0.00,,---,0.00,VWS V14.01,2013-03-04 07:00:00,
2013-03-04 02:01:00,27.3,19.8,30.00,SSE,158,0.0,0.0,73,0.00,,---,0.00,VWS V14.01,2013-03-04 07:01:00,
2013-03-04 02:05:00,27.1,20.3,29.97,SSE,158,0.0,0.0,75,0.00,,---,0.00,VWS V14.01,2013-03-04 07:05:00,
2013-03-04 02:06:00,27.1,19.6,30.00,SE,135,0.0,0.0,73,0.00,,---,0.00,VWS V14.01,2013-03-04 07:06:00,
2013-03-04 02:10:00,27.5,20.6,29.97,SSE,158,0.0,0.0,75,0.00,,---,0.00,VWS V14.01,2013-03-04 07:10:00,
2013-03-04 02:11:00,27.0,19.5,30.00,SE,135,0.0,0.0,73,0.00,,---,0.00,VWS V14.01,2013-03-04 07:11:00,
2013-03-04 02:15:00,27.3,20.5,29.97,SSE,158,0.0,0.0,75,0.00,,---,0.00,VWS V14.01,2013-03-04 07:15:00,
2013-03-04 02:16:00,27.1,20.0,29.97,SE,135,0.0,0.0,74,0.00,,---,0.00,VWS V14.01,2013-03-04 07:16:00,
2013-03-04 02:20:00,27.0,20.1,29.97,SSE,158,0.0,0.0,75,0.00,,---,0.00,VWS V14.01,2013-03-04 07:20:00,
2013-03-04 02:21:00,27.5,20.0,29.97,SE,135,0.0,0.0,73,0.00,,---,0.00,VWS V14.01,2013-03-04 07:21:00,
2013-03-04 02:25:00,27.0,20.1,29.97,SSE,158,0.0,0.0,75,0.00,,---,0.00,VWS V14.01,2013-03-04 07:25:00,
2013-03-04 02:26:00,27.0,19.8,29.97,SE,135,0.0,0.0,74,0.00,,---,0.00,VWS V14.01,2013-03-04 07:26:00,
2013-03-04 02:30:00,26.6,20.1,29.97,SSE,158,0.0,0.0,76,0.00,,---,0.00,VWS V14.01,2013-03-04 07:30:00,
2013-03-04 02:31:00,26.8,19.6,29.97,East,90,0.0,0.0,74,0.00,,---,0.00,VWS V14.01,2013-03-04 07:31:00,
2013-03-04 02:35:00,26.4,19.9,29.97,SSE,158,0.0,0.0,76,0.00,,---,0.00,VWS V14.01,2013-03-04 07:35:00,
2013-03-04 02:36:00,27.0,19.8,29.97,East,90,0.0,0.0,74,0.00,,---,0.00,VWS V14.01,2013-03-04 07:36:00,
2013-03-04 02:40:00,26.8,20.2,29.97,SSE,158,0.0,0.0,76,0.00,,---,0.00,VWS V14.01,2013-03-04 07:40:00,
2013-03-04 02:41:00,27.3,20.1,29.97,East,90,0.0,0.0,74,0.00,,---,0.00,VWS V14.01,2013-03-04 07:41:00,
2013-03-04 02:45:00,26.6,20.4,29.97,SSE,158,0.0,0.0,77,0.00,,---,0.00,VWS V14.01,2013-03-04 07:45:00,
2013-03-04 02:46:00,27.0,20.1,29.97,East,90,0.0,0.0,75,0.00,,---,0.00,VWS V14.01,2013-03-04 07:46:00,
2013-03-04 02:50:00,26.1,19.9,29.97,SSE,158,0.0,0.0,77,0.00,,---,0.00,VWS V14.01,2013-03-04 07:50:00,
2013-03-04 02:51:00,26.8,19.9,29.97,East,90,0.0,0.0,75,0.00,,---,0.00,VWS V14.01,2013-03-04 07:51:00,
2013-03-04 02:55:00,26.4,20.2,29.97,West,270,0.0,0.0,77,0.00,,---,0.00,VWS V14.01,2013-03-04 07:55:00,
2013-03-04 02:56:00,26.6,19.8,29.97,East,90,0.0,0.0,75,0.00,,---,0.00,VWS V14.01,2013-03-04 07:56:00,
2013-03-04 03:00:00,27.0,20.7,29.97,West,270,0.0,0.0,77,0.00,,---,0.00,VWS V14.01,2013-03-04 08:00:00,
2013-03-04 03:01:00,26.6,20.1,29.97,East,90,0.0,0.0,76,0.00,,---,0.00,VWS V14.01,2013-03-04 08:01:00,
2013-03-04 03:05:00,27.0,21.0,29.97,West,270,0.0,0.0,78,0.00,,---,0.00,VWS V14.01,2013-03-04 08:05:00,
2013-03-04 03:06:00,27.1,20.3,29.97,SSE,158,0.0,0.0,75,0.00,,---,0.00,VWS V14.01,2013-03-04 08:06:00,
2013-03-04 03:10:00,27.1,20.9,29.97,WSW,248,0.0,0.0,77,0.00,,---,0.00,VWS V14.01,2013-03-04 08:10:00,
2013-03-04 03:11:00,27.5,20.6,29.97,SSE,158,0.0,0.0,75,0.00,,---,0.00,VWS V14.01,2013-03-04 08:11:00,
2013-03-04 03:15:00,27.1,20.9,29.97,WSW,248,0.0,0.0,77,0.00,,---,0.00,VWS V14.01,2013-03-04 08:15:00,
2013-03-04 03:16:00,27.3,20.5,29.97,SSE,158,0.0,0.0,75,0.00,,---,0.00,VWS V14.01,2013-03-04 08:16:00,
2013-03-04 03:20:00,27.0,20.7,29.97,WSW,248,0.0,0.0,77,0.00,,---,0.00,VWS V14.01,2013-03-04 08:20:00,
2013-03-04 03:21:00,27.0,20.1,29.97,SSE,158,0.0,0.0,75,0.00,,---,0.00,VWS V14.01,2013-03-04 08:21:00,
2013-03-04 03:25:00,26.8,20.2,29.97,WSW,248,0.0,0.0,76,0.00,,---,0.00,VWS V14.01,2013-03-04 08:25:00,
2013-03-04 03:26:00,27.0,20.1,29.97,SSE,158,0.0,0.0,75,0.00,,---,0.00,VWS V14.01,2013-03-04 08:26:00,
2013-03-04 03:30:00,26.2,20.0,29.97,WSW,248,0.0,0.0,77,0.00,,---,0.00,VWS V14.01,2013-03-04 08:30:00,
2013-03-04 03:31:00,26.6,20.1,29.97,SSE,158,0.0,0.0,76,0.00,,---,0.00,VWS V14.01,2013-03-04 08:31:00,
2013-03-04 03:35:00,25.9,19.7,29.97,WSW,248,0.0,0.0,77,0.00,,---,0.00,VWS V14.01,2013-03-04 08:35:00,
2013-03-04 03:36:00,26.4,19.9,29.97,SSE,158,0.0,0.0,76,0.00,,---,0.00,VWS V14.01,2013-03-04 08:36:00,
2013-03-04 03:40:00,25.7,19.5,29.97,WSW,248,0.0,0.0,77,0.00,,---,0.00,VWS V14.01,2013-03-04 08:40:00,
2013-03-04 03:41:00,26.8,20.2,29.97,SSE,158,0.0,0.0,76,0.00,,---,0.00,VWS V14.01,2013-03-04 08:41:00,
2013-03-04 03:45:00,25.7,19.5,29.97,WSW,248,0.0,0.0,77,0.00,,---,0.00,VWS V14.01,2013-03-04 08:45:00,
2013-03-04 03:46:00,26.6,20.4,29.97,SSE,158,0.0,0.0,77,0.00,,---,0.00,VWS V14.01,2013-03-04 08:46:00,
2013-03-04 03:50:00,26.2,20.3,29.97,WSW,248,0.0,0.0,78,0.00,,---,0.00,VWS V14.01,2013-03-04 08:50:00,
2013-03-04 03:51:00,26.1,19.9,29.97,SSE,158,0.0,0.0,77,0.00,,---,0.00,VWS V14.01,2013-03-04 08:51:00,
2013-03-04 03:55:00,26.1,20.1,29.97,WSW,248,0.0,0.0,78,0.00,,---,0.00,VWS V14.01,2013-03-04 08:55:00,
2013-03-04 03:56:00,26.4,20.2,29.97,West,270,0.0,0.0,77,0.00,,---,0.00,VWS V14.01,2013-03-04 08:56:00,
2013-03-04 04:00:00,25.9,20.0,29.97,WSW,248,0.0,0.0,78,0.00,,---,0.00,VWS V14.01,2013-03-04 09:00:00,
2013-03-04 04:01:00,27.0,20.7,29.97,West,270,0.0,0.0,77,0.00,,---,0.00,VWS V14.01,2013-03-04 09:01:00,
2013-03-04 04:05:00,25.9,20.0,29.97,WSW,248,0.0,0.0,78,0.00,,---,0.00,VWS V14.01,2013-03-04 09:05:00,
2013-03-04 04:06:00,27.0,21.0,29.97,West,270,0.0,0.0,78,0.00,,---,0.00,VWS V14.01,2013-03-04 09:06:00,
2013-03-04 04:10:00,26.4,20.8,29.97,WSW,248,0.0,0.0,79,0.00,,---,0.00,VWS V14.01,2013-03-04 09:10:00,
2013-03-04 04:11:00,27.1,20.9,29.97,WSW,248,0.0,0.0,77,0.00,,---,0.00,VWS V14.01,2013-03-04 09:11:00,
2013-03-04 04:15:00,26.8,20.9,29.97,South,180,0.0,0.0,78,0.00,,---,0.00,VWS V14.01,2013-03-04 09:15:00,
2013-03-04 04:16:00,27.1,20.9,29.97,WSW,248,0.0,0.0,77,0.00,,---,0.00,VWS V14.01,2013-03-04 09:16:00,
2013-03-04 04:20:00,26.8,20.9,29.97,South,180,0.0,0.0,78,0.00,,---,0.00,VWS V14.01,2013-03-04 09:20:00,
2013-03-04 04:21:00,27.0,20.7,29.97,WSW,248,0.0,0.0,77,0.00,,---,0.00,VWS V14.01,2013-03-04 09:21:00,
2013-03-04 04:25:00,26.8,20.5,29.97,South,180,0.0,0.0,77,0.00,,---,0.00,VWS V14.01,2013-03-04 09:25:00,
2013-03-04 04:26:00,26.8,20.2,29.97,WSW,248,0.0,0.0,76,0.00,,---,0.00,VWS V14.01,2013-03-04 09:26:00,
2013-03-04 04:30:00,26.6,20.7,29.97,South,180,0.0,0.0,78,0.00,,---,0.00,VWS V14.01,2013-03-04 09:30:00,
2013-03-04 04:31:00,26.2,20.0,29.97,WSW,248,0.0,0.0,77,0.00,,---,0.00,VWS V14.01,2013-03-04 09:31:00,
2013-03-04 04:35:00,26.8,20.9,29.97,SSW,202,0.0,0.0,78,0.00,,---,0.00,VWS V14.01,2013-03-04 09:35:00,
2013-03-04 04:36:00,25.9,19.7,29.97,WSW,248,0.0,0.0,77,0.00,,---,0.00,VWS V14.01,2013-03-04 09:36:00,
2013-03-04 04:40:00,27.3,21.7,29.97,SSW,202,0.0,0.0,79,0.00,,---,0.00,VWS V14.01,2013-03-04 09:40:00,
2013-03-04 04:41:00,25.7,19.5,29.97,WSW,248,0.0,0.0,77,0.00,,---,0.00,VWS V14.01,2013-03-04 09:41:00,
2013-03-04 04:45:00,27.0,21.6,30.00,SSW,202,0.0,0.0,80,0.00,,---,0.00,VWS V14.01,2013-03-04 09:45:00,
2013-03-04 04:46:00,25.7,19.5,29.97,WSW,248,0.0,0.0,77,0.00,,---,0.00,VWS V14.01,2013-03-04 09:46:00,
2013-03-04 04:50:00,26.6,21.0,30.00,SSW,202,0.0,0.0,79,0.00,,---,0.00,VWS V14.01,2013-03-04 09:50:00,
2013-03-04 04:51:00,26.2,20.3,29.97,WSW,248,0.0,0.0,78,0.00,,---,0.00,VWS V14.01,2013-03-04 09:51:00,
2013-03-04 04:55:00,26.8,21.1,30.00,SSW,202,0.0,0.0,79,0.00,,---,0.00,VWS V14.01,2013-03-04 09:55:00,
2013-03-04 04:56:00,26.1,20.1,29.97,WSW,248,0.0,0.0,78,0.00,,---,0.00,VWS V14.01,2013-03-04 09:56:00,
2013-03-04 05:00:00,26.6,21.0,30.03,SSW,202,0.0,0.0,79,0.00,,---,0.00,VWS V14.01,2013-03-04 10:00:00,
2013-03-04 05:01:00,25.9,20.0,29.97,WSW,248,0.0,0.0,78,0.00,,---,0.00,VWS V14.01,2013-03-04 10:01:00,
2013-03-04 05:05:00,26.1,20.5,30.03,SSW,202,0.0,0.0,79,0.00,,---,0.00,VWS V14.01,2013-03-04 10:05:00,
2013-03-04 05:06:00,25.9,20.0,29.97,WSW,248,0.0,0.0,78,0.00,,---,0.00,VWS V14.01,2013-03-04 10:06:00,
2013-03-04 05:10:00,26.1,20.5,30.03,SE,135,0.0,0.0,79,0.00,,---,0.00,VWS V14.01,2013-03-04 10:10:00,
2013-03-04 05:11:00,26.4,20.8,29.97,WSW,248,0.0,0.0,79,0.00,,---,0.00,VWS V14.01,2013-03-04 10:11:00,
2013-03-04 05:15:00,25.9,20.3,30.00,SE,135,0.0,0.0,79,0.00,,---,0.00,VWS V14.01,2013-03-04 10:15:00,
2013-03-04 05:16:00,26.8,20.9,29.97,South,180,0.0,0.0,78,0.00,,---,0.00,VWS V14.01,2013-03-04 10:16:00,
2013-03-04 05:20:00,25.9,20.3,30.00,SE,135,0.0,0.0,79,0.00,,---,0.00,VWS V14.01,2013-03-04 10:20:00,
2013-03-04 05:21:00,26.8,20.9,29.97,South,180,0.0,0.0,78,0.00,,---,0.00,VWS V14.01,2013-03-04 10:21:00,
2013-03-04 05:25:00,26.2,20.6,30.00,SE,135,0.0,0.0,79,0.00,,---,0.00,VWS V14.01,2013-03-04 10:25:00,
2013-03-04 05:26:00,26.8,20.5,29.97,South,180,0.0,0.0,77,0.00,,---,0.00,VWS V14.01,2013-03-04 10:26:00,
2013-03-04 05:30:00,26.2,20.9,30.00,SSE,158,0.0,0.0,80,0.00,,---,0.00,VWS V14.01,2013-03-04 10:30:00,
2013-03-04 05:31:00,26.6,20.7,29.97,South,180,0.0,0.0,78,0.00,,---,0.00,VWS V14.01,2013-03-04 10:31:00,
2013-03-04 05:35:00,26.1,20.5,30.00,SSE,158,0.0,0.0,79,0.00,,---,0.00,VWS V14.01,2013-03-04 10:35:00,
2013-03-04 05:36:00,26.8,20.9,29.97,SSW,202,0.0,0.0,78,0.00,,---,0.00,VWS V14.01,2013-03-04 10:36:00,
2013-03-04 05:40:00,26.1,20.5,30.00,SSE,158,0.0,0.0,79,0.00,,---,0.00,VWS V14.01,2013-03-04 10:40:00,
2013-03-04 05:41:00,27.3,21.7,29.97,SSW,202,0.0,0.0,79,0.00,,---,0.00,VWS V14.01,2013-03-04 10:41:00,
2013-03-04 05:45:00,26.2,20.6,30.00,South,180,0.0,0.0,79,0.00,,---,0.00,VWS V14.01,2013-03-04 10:45:00,
2013-03-04 05:46:00,27.0,21.6,30.00,SSW,202,0.0,0.0,80,0.00,,---,0.00,VWS V14.01,2013-03-04 10:46:00,
2013-03-04 05:50:00,26.1,20.5,30.00,ESE,112,0.0,0.0,79,0.00,,---,0.00,VWS V14.01,2013-03-04 10:50:00,
2013-03-04 05:51:00,26.6,21.0,30.00,SSW,202,0.0,0.0,79,0.00,,---,0.00,VWS V14.01,2013-03-04 10:51:00,
2013-03-04 05:55:00,25.7,20.1,30.00,ESE,112,0.0,0.0,79,0.00,,---,0.00,VWS V14.01,2013-03-04 10:55:00,
2013-03-04 05:56:00,26.8,21.1,30.00,SSW,202,0.0,0.0,79,0.00,,---,0.00,VWS V14.01,2013-03-04 10:56:00,
2013-03-04 06:00:00,25.9,20.3,30.03,SSE,158,0.0,0.0,79,0.00,,---,0.00,VWS V14.01,2013-03-04 11:00:00,
2013-03-04 06:01:00,26.6,21.0,30.03,SSW,202,0.0,0.0,79,0.00,,---,0.00,VWS V14.01,2013-03-04 11:01:00,
2013-03-04 06:05:00,26.1,20.5,30.03,SE,135,0.0,0.0,79,0.00,,---,0.00,VWS V14.01,2013-03-04 11:05:00,
2013-03-04 06:06:00,26.1,20.5,30.03,SSW,202,0.0,0.0,79,0.00,,---,0.00,VWS V14.01,2013-03-04 11:06:00,
2013-03-04 06:10:00,25.9,20.3,30.03,SE,135,0.0,0.0,79,0.00,,---,0.00,VWS V14.01,2013-03-04 11:10:00,
2013-03-04 06:11:00,26.1,20.5,30.03,SE,135,0.0,0.0,79,0.00,,---,0.00,VWS V14.01,2013-03-04 11:11:00,
2013-03-04 06:15:00,27.0,21.6,30.03,South,180,0.0,0.0,80,0.00,,---,0.00,VWS V14.01,2013-03-04 11:15:00,
2013-03-04 06:16:00,25.9,20.3,30.00,SE,135,0.0,0.0,79,0.00,,---,0.00,VWS V14.01,2013-03-04 11:16:00,
2013-03-04 06:20:00,27.9,22.8,30.03,South,180,0.0,0.0,81,0.00,,---,0.00,VWS V14.01,2013-03-04 11:20:00,
2013-03-04 06:21:00,25.9,20.3,30.00,SE,135,0.0,0.0,79,0.00,,---,0.00,VWS V14.01,2013-03-04 11:21:00,
2013-03-04 06:25:00,28.6,23.8,30.03,South,180,0.0,0.0,82,0.00,,---,0.00,VWS V14.01,2013-03-04 11:25:00,
2013-03-04 06:26:00,26.2,20.6,30.00,SE,135,0.0,0.0,79,0.00,,---,0.00,VWS V14.01,2013-03-04 11:26:00,
2013-03-04 06:30:00,29.8,25.3,30.03,South,180,0.0,0.0,83,0.00,,---,0.00,VWS V14.01,2013-03-04 11:30:00,
2013-03-04 06:31:00,26.2,20.9,30.00,SSE,158,0.0,0.0,80,0.00,,---,0.00,VWS V14.01,2013-03-04 11:31:00,
2013-03-04 06:35:00,31.5,27.2,30.03,South,180,0.0,0.0,84,0.00,,---,0.00,VWS V14.01,2013-03-04 11:35:00,
2013-03-04 06:36:00,26.1,20.5,30.00,SSE,158,0.0,0.0,79,0.00,,---,0.00,VWS V14.01,2013-03-04 11:36:00,
2013-03-04 06:40:00,33.6,29.9,30.03,SSE,158,0.0,0.0,86,0.00,,---,0.00,VWS V14.01,2013-03-04 11:40:00,
2013-03-04 06:41:00,26.1,20.5,30.00,SSE,158,0.0,0.0,79,0.00,,---,0.00,VWS V14.01,2013-03-04 11:41:00,
2013-03-04 06:45:00,35.4,32.2,30.06,West,270,0.0,0.0,88,0.00,,---,0.00,VWS V14.01,2013-03-04 11:45:00,
2013-03-04 06:46:00,26.2,20.6,30.00,South,180,0.0,0.0,79,0.00,,---,0.00,VWS V14.01,2013-03-04 11:46:00,
2013-03-04 06:50:00,36.3,32.8,30.06,West,270,0.0,0.0,87,0.00,,---,0.00,VWS V14.01,2013-03-04 11:50:00,
2013-03-04 06:51:00,26.1,20.5,30.00,ESE,112,0.0,0.0,79,0.00,,---,0.00,VWS V14.01,2013-03-04 11:51:00,
2013-03-04 06:55:00,37.4,33.6,30.06,WSW,248,0.0,0.0,86,0.00,,---,0.00,VWS V14.01,2013-03-04 11:55:00,
2013-03-04 06:56:00,25.7,20.1,30.00,ESE,112,0.0,0.0,79,0.00,,---,0.00,VWS V14.01,2013-03-04 11:56:00,
2013-03-04 07:00:00,39.2,35.4,30.03,WSW,248,0.0,0.0,86,0.00,,---,0.00,VWS V14.01,2013-03-04 12:00:00,
2013-03-04 07:01:00,25.9,20.3,30.03,SSE,158,0.0,0.0,79,0.00,,---,0.00,VWS V14.01,2013-03-04 12:01:00,
2013-03-04 07:05:00,40.5,36.6,30.03,WSW,248,0.0,0.0,86,0.00,,---,0.00,VWS V14.01,2013-03-04 12:05:00,
2013-03-04 07:06:00,26.1,20.5,30.03,SE,135,0.0,0.0,79,0.00,,---,0.00,VWS V14.01,2013-03-04 12:06:00,
2013-03-04 07:10:00,42.1,37.9,30.03,West,270,0.0,0.0,85,0.00,,---,0.00,VWS V14.01,2013-03-04 12:10:00,
2013-03-04 07:11:00,25.9,20.3,30.03,SE,135,0.0,0.0,79,0.00,,---,0.00,VWS V14.01,2013-03-04 12:11:00,
2013-03-04 07:15:00,44.6,39.1,30.03,WNW,292,0.0,0.0,81,0.00,,---,0.00,VWS V14.01,2013-03-04 12:15:00,
2013-03-04 07:16:00,27.0,21.6,30.03,South,180,0.0,0.0,80,0.00,,---,0.00,VWS V14.01,2013-03-04 12:16:00,
2013-03-04 07:20:00,46.0,38.2,30.03,West,270,0.0,0.0,74,0.00,,---,0.00,VWS V14.01,2013-03-04 12:20:00,
2013-03-04 07:21:00,27.9,22.8,30.03,South,180,0.0,0.0,81,0.00,,---,0.00,VWS V14.01,2013-03-04 12:21:00,
2013-03-04 07:25:00,46.9,36.6,30.03,NNW,338,0.0,0.0,67,0.00,,---,0.00,VWS V14.01,2013-03-04 12:25:00,
2013-03-04 07:26:00,28.6,23.8,30.03,South,180,0.0,0.0,82,0.00,,---,0.00,VWS V14.01,2013-03-04 12:26:00,
2013-03-04 07:30:00,47.8,31.5,30.06,WNW,292,0.0,2.5,53,0.00,,---,0.00,VWS V14.01,2013-03-04 12:30:00,
2013-03-04 07:31:00,29.8,25.3,30.03,South,180,0.0,0.0,83,0.00,,---,0.00,VWS V14.01,2013-03-04 12:31:00,
2013-03-04 07:35:00,48.9,30.1,30.06,NW,315,0.0,3.6,48,0.00,,---,0.00,VWS V14.01,2013-03-04 12:35:00,
2013-03-04 07:36:00,31.5,27.2,30.03,South,180,0.0,0.0,84,0.00,,---,0.00,VWS V14.01,2013-03-04 12:36:00,
2013-03-04 07:40:00,49.8,29.4,30.06,ESE,112,0.0,2.0,45,0.00,,---,0.00,VWS V14.01,2013-03-04 12:40:00,
2013-03-04 07:41:00,33.6,29.9,30.03,SSE,158,0.0,0.0,86,0.00,,---,0.00,VWS V14.01,2013-03-04 12:41:00,
2013-03-04 07:45:00,50.7,28.5,30.06,NW,315,2.5,2.9,42,0.00,,---,0.00,VWS V14.01,2013-03-04 12:45:00,
2013-03-04 07:46:00,35.4,32.2,30.06,West,270,0.0,0.0,88,0.00,,---,0.00,VWS V14.01,2013-03-04 12:46:00,
2013-03-04 07:50:00,52.0,28.4,30.06,WNW,292,0.0,2.7,40,0.00,,---,0.00,VWS V14.01,2013-03-04 12:50:00,
2013-03-04 07:51:00,36.3,32.8,30.06,West,270,0.0,0.0,87,0.00,,---,0.00,VWS V14.01,2013-03-04 12:51:00,
2013-03-04 07:55:00,53.1,28.8,30.06,West,270,0.0,2.2,39,0.00,,---,0.00,VWS V14.01,2013-03-04 12:55:00,
2013-03-04 07:56:00,37.4,33.6,30.06,WSW,248,0.0,0.0,86,0.00,,---,0.00,VWS V14.01,2013-03-04 12:56:00,
2013-03-04 08:00:00,54.7,29.6,30.06,ENE,68,0.0,1.1,38,0.00,,---,0.00,VWS V14.01,2013-03-04 13:00:00,
2013-03-04 08:01:00,39.2,35.4,30.03,WSW,248,0.0,0.0,86,0.00,,---,0.00,VWS V14.01,2013-03-04 13:01:00,
2013-03-04 08:05:00,55.9,29.4,30.06,NW,315,4.0,4.0,36,0.00,,---,0.00,VWS V14.01,2013-03-04 13:05:00,
2013-03-04 08:06:00,40.5,36.6,30.03,WSW,248,0.0,0.0,86,0.00,,---,0.00,VWS V14.01,2013-03-04 13:06:00,
2013-03-04 08:10:00,56.8,30.2,30.06,NNE,22,0.0,4.0,36,0.00,,---,0.00,VWS V14.01,2013-03-04 13:10:00,
2013-03-04 08:11:00,42.1,37.9,30.03,West,270,0.0,0.0,85,0.00,,---,0.00,VWS V14.01,2013-03-04 13:11:00,
2013-03-04 08:15:00,56.7,27.9,30.06,NNW,338,2.2,3.8,33,0.00,,---,0.00,VWS V14.01,2013-03-04 13:15:00,
2013-03-04 08:16:00,44.6,39.1,30.03,WNW,292,0.0,0.0,81,0.00,,---,0.00,VWS V14.01,2013-03-04 13:16:00,
2013-03-04 08:20:00,56.8,25.8,30.06,NW,315,3.4,4.3,30,0.00,,---,0.00,VWS V14.01,2013-03-04 13:20:00,
2013-03-04 08:21:00,46.0,38.2,30.03,West,270,0.0,0.0,74,0.00,,---,0.00,VWS V14.01,2013-03-04 13:21:00,
2013-03-04 08:25:00,58.1,27.6,30.06,WSW,248,2.2,3.4,31,0.00,,---,0.00,VWS V14.01,2013-03-04 13:25:00,
2013-03-04 08:26:00,46.9,36.6,30.03,NNW,338,0.0,0.0,67,0.00,,---,0.00,VWS V14.01,2013-03-04 13:26:00,
2013-03-04 08:30:00,58.8,27.5,30.06,NW,315,1.3,3.1,30,0.00,,---,0.00,VWS V14.01,2013-03-04 13:30:00,
2013-03-04 08:31:00,47.8,31.5,30.06,WNW,292,0.0,2.5,53,0.00,,---,0.00,VWS V14.01,2013-03-04 13:31:00,
2013-03-04 08:35:00,60.1,26.9,30.06,North,0,0.0,3.8,28,0.00,,---,0.00,VWS V14.01,2013-03-04 13:35:00,
2013-03-04 08:36:00,48.9,30.1,30.06,NW,315,0.0,3.6,48,0.00,,---,0.00,VWS V14.01,2013-03-04 13:36:00,
2013-03-04 08:40:00,59.5,24.6,30.06,ENE,68,2.5,4.9,26,0.00,,---,0.00,VWS V14.01,2013-03-04 13:40:00,
2013-03-04 08:41:00,49.8,29.4,30.06,ESE,112,0.0,2.0,45,0.00,,---,0.00,VWS V14.01,2013-03-04 13:41:00,
2013-03-04 08:45:00,59.7,23.9,30.06,NNE,22,3.6,4.7,25,0.00,,---,0.00,VWS V14.01,2013-03-04 13:45:00,
2013-03-04 08:46:00,50.7,28.5,30.06,NW,315,2.5,2.9,42,0.00,,---,0.00,VWS V14.01,2013-03-04 13:46:00,
2013-03-04 08:50:00,61.2,25.1,30.06,East,90,3.6,4.3,25,0.00,,---,0.00,VWS V14.01,2013-03-04 13:50:00,
2013-03-04 08:51:00,52.0,28.4,30.06,WNW,292,0.0,2.7,40,0.00,,---,0.00,VWS V14.01,2013-03-04 13:51:00,
2013-03-04 08:55:00,62.2,26.0,30.06,East,90,2.2,5.8,25,0.00,,---,0.00,VWS V14.01,2013-03-04 13:55:00,
2013-03-04 08:56:00,53.1,28.8,30.06,West,270,0.0,2.2,39,0.00,,---,0.00,VWS V14.01,2013-03-04 13:56:00,
2013-03-04 09:00:00,62.6,25.3,30.03,NNW,338,2.9,3.6,24,0.00,,---,0.00,VWS V14.01,2013-03-04 14:00:00,
2013-03-04 09:01:00,54.7,29.6,30.06,ENE,68,0.0,1.1,38,0.00,,---,0.00,VWS V14.01,2013-03-04 14:01:00,
2013-03-04 09:05:00,62.2,25.0,30.03,ENE,68,0.9,4.9,24,0.00,,---,0.00,VWS V14.01,2013-03-04 14:05:00,
2013-03-04 09:06:00,55.9,29.4,30.06,NW,315,4.0,4.0,36,0.00,,---,0.00,VWS V14.01,2013-03-04 14:06:00,
2013-03-04 09:10:00,64.0,26.5,30.03,ESE,112,1.6,2.2,24,0.00,,---,0.00,VWS V14.01,2013-03-04 14:10:00,
2013-03-04 09:11:00,56.8,30.2,30.06,NNE,22,0.0,4.0,36,0.00,,---,0.00,VWS V14.01,2013-03-04 14:11:00,
2013-03-04 09:15:00,64.4,25.8,30.03,South,180,0.0,2.7,23,0.00,,---,0.00,VWS V14.01,2013-03-04 14:15:00,
2013-03-04 09:16:00,56.7,27.9,30.06,NNW,338,2.2,3.8,33,0.00,,---,0.00,VWS V14.01,2013-03-04 14:16:00,
2013-03-04 09:20:00,65.3,26.6,30.03,ENE,68,2.2,3.8,23,0.00,,---,0.00,VWS V14.01,2013-03-04 14:20:00,
2013-03-04 09:21:00,56.8,25.8,30.06,NW,315,3.4,4.3,30,0.00,,---,0.00,VWS V14.01,2013-03-04 14:21:00,
2013-03-04 09:25:00,64.8,22.8,30.03,NNE,22,0.9,4.7,20,0.00,,---,0.00,VWS V14.01,2013-03-04 14:25:00,
2013-03-04 09:26:00,58.1,27.6,30.06,WSW,248,2.2,3.4,31,0.00,,---,0.00,VWS V14.01,2013-03-04 14:26:00,
2013-03-04 09:30:00,65.1,20.6,30.03,NNW,338,2.9,5.4,18,0.00,,---,0.00,VWS V14.01,2013-03-04 14:30:00,
2013-03-04 09:31:00,58.8,27.5,30.06,NW,315,1.3,3.1,30,0.00,,---,0.00,VWS V14.01,2013-03-04 14:31:00,
2013-03-04 09:35:00,65.1,20.6,30.03,NW,315,2.2,4.9,18,0.00,,---,0.00,VWS V14.01,2013-03-04 14:35:00,
2013-03-04 09:36:00,60.1,26.9,30.06,North,0,0.0,3.8,28,0.00,,---,0.00,VWS V14.01,2013-03-04 14:36:00,
2013-03-04 09:40:00,64.9,16.2,30.03,ESE,112,5.8,5.8,15,0.00,,---,0.00,VWS V14.01,2013-03-04 14:40:00,
2013-03-04 09:41:00,59.5,24.6,30.06,ENE,68,2.5,4.9,26,0.00,,---,0.00,VWS V14.01,2013-03-04 14:41:00,
2013-03-04 09:45:00,63.1,19.0,30.03,North,0,1.3,6.7,18,0.00,,---,0.00,VWS V14.01,2013-03-04 14:45:00,
2013-03-04 09:46:00,59.7,23.9,30.06,NNE,22,3.6,4.7,25,0.00,,---,0.00,VWS V14.01,2013-03-04 14:46:00,
2013-03-04 09:50:00,65.8,21.2,30.03,ENE,68,0.0,4.0,18,0.00,,---,0.00,VWS V14.01,2013-03-04 14:50:00,
2013-03-04 09:51:00,61.2,25.1,30.06,East,90,3.6,4.3,25,0.00,,---,0.00,VWS V14.01,2013-03-04 14:51:00,
2013-03-04 09:55:00,66.7,20.6,30.03,NNW,338,2.7,4.3,17,0.00,,---,0.00,VWS V14.01,2013-03-04 14:55:00,
2013-03-04 09:56:00,62.2,26.0,30.06,East,90,2.2,5.8,25,0.00,,---,0.00,VWS V14.01,2013-03-04 14:56:00,
2013-03-04 10:00:00,67.5,21.2,30.03,WNW,292,0.0,3.8,17,0.00,,---,0.00,VWS V14.01,2013-03-04 15:00:00,
2013-03-04 10:01:00,62.6,25.3,30.03,NNW,338,2.9,3.6,24,0.00,,---,0.00,VWS V14.01,2013-03-04 15:01:00,
2013-03-04 10:05:00,67.6,21.3,30.03,NW,315,3.1,5.6,17,0.00,,---,0.00,VWS V14.01,2013-03-04 15:05:00,
2013-03-04 10:06:00,62.2,25.0,30.03,ENE,68,0.9,4.9,24,0.00,,---,0.00,VWS V14.01,2013-03-04 15:06:00,
2013-03-04 10:10:00,67.8,18.5,30.03,NNE,22,0.0,3.1,15,0.00,,---,0.00,VWS V14.01,2013-03-04 15:10:00,
2013-03-04 10:11:00,64.0,26.5,30.03,ESE,112,1.6,2.2,24,0.00,,---,0.00,VWS V14.01,2013-03-04 15:11:00,
2013-03-04 10:15:00,68.7,19.2,30.03,ENE,68,2.5,3.6,15,0.00,,---,0.00,VWS V14.01,2013-03-04 15:15:00,
2013-03-04 10:16:00,64.4,25.8,30.03,South,180,0.0,2.7,23,0.00,,---,0.00,VWS V14.01,2013-03-04 15:16:00,
2013-03-04 10:20:00,66.6,17.5,30.03,East,90,0.0,7.2,15,0.00,,---,0.00,VWS V14.01,2013-03-04 15:20:00,
2013-03-04 10:21:00,65.3,26.6,30.03,ENE,68,2.2,3.8,23,0.00,,---,0.00,VWS V14.01,2013-03-04 15:21:00,
2013-03-04 10:25:00,68.9,19.4,30.03,WNW,292,0.0,3.4,15,0.00,,---,0.00,VWS V14.01,2013-03-04 15:25:00,
2013-03-04 10:26:00,64.8,22.8,30.03,NNE,22,0.9,4.7,20,0.00,,---,0.00,VWS V14.01,2013-03-04 15:26:00,
2013-03-04 10:30:00,67.1,17.9,30.03,West,270,1.3,5.6,15,0.00,,---,0.00,VWS V14.01,2013-03-04 15:30:00,
2013-03-04 10:31:00,65.1,20.6,30.03,NNW,338,2.9,5.4,18,0.00,,---,0.00,VWS V14.01,2013-03-04 15:31:00,
2013-03-04 10:35:00,68.2,18.8,30.03,NNE,22,0.0,4.9,15,0.00,,---,0.00,VWS V14.01,2013-03-04 15:35:00,
2013-03-04 10:36:00,65.1,20.6,30.03,NW,315,2.2,4.9,18,0.00,,---,0.00,VWS V14.01,2013-03-04 15:36:00,
2013-03-04 10:40:00,70.2,18.8,30.03,NE,45,2.7,2.7,14,0.00,,---,0.00,VWS V14.01,2013-03-04 15:40:00,
2013-03-04 10:41:00,64.9,16.2,30.03,ESE,112,5.8,5.8,15,0.00,,---,0.00,VWS V14.01,2013-03-04 15:41:00,
2013-03-04 10:45:00,70.9,19.4,30.03,NW,315,0.0,3.1,14,0.00,,---,0.00,VWS V14.01,2013-03-04 15:45:00,
2013-03-04 10:46:00,63.1,19.0,30.03,North,0,1.3,6.7,18,0.00,,---,0.00,VWS V14.01,2013-03-04 15:46:00,
2013-03-04 10:50:00,71.2,16.1,30.03,East,90,3.8,5.4,12,0.00,,---,0.00,VWS V14.01,2013-03-04 15:50:00,
2013-03-04 10:51:00,65.8,21.2,30.03,ENE,68,0.0,4.0,18,0.00,,---,0.00,VWS V14.01,2013-03-04 15:51:00,
2013-03-04 10:55:00,69.8,14.9,30.03,SSE,158,1.3,4.9,12,0.00,,---,0.00,VWS V14.01,2013-03-04 15:55:00,
2013-03-04 10:56:00,66.7,20.6,30.03,NNW,338,2.7,4.3,17,0.00,,---,0.00,VWS V14.01,2013-03-04 15:56:00,
2013-03-04 11:00:00,68.9,14.2,30.03,SSW,202,0.0,5.8,12,0.00,,---,0.00,VWS V14.01,2013-03-04 16:00:00,
2013-03-04 11:01:00,67.5,21.2,30.03,WNW,292,0.0,3.8,17,0.00,,---,0.00,VWS V14.01,2013-03-04 16:01:00,
2013-03-04 11:05:00,71.1,15.9,30.03,North,0,1.6,4.3,12,0.00,,---,0.00,VWS V14.01,2013-03-04 16:05:00,
2013-03-04 11:06:00,67.6,21.3,30.03,NW,315,3.1,5.6,17,0.00,,---,0.00,VWS V14.01,2013-03-04 16:06:00,
2013-03-04 11:10:00,71.8,14.5,30.03,WNW,292,1.3,2.7,11,0.00,,---,0.00,VWS V14.01,2013-03-04 16:10:00,
2013-03-04 11:11:00,67.8,18.5,30.03,NNE,22,0.0,3.1,15,0.00,,---,0.00,VWS V14.01,2013-03-04 16:11:00,
2013-03-04 11:15:00,71.4,16.2,30.00,West,270,2.2,3.4,12,0.00,,---,0.00,VWS V14.01,2013-03-04 16:15:00,
2013-03-04 11:16:00,68.7,19.2,30.03,ENE,68,2.5,3.6,15,0.00,,---,0.00,VWS V14.01,2013-03-04 16:16:00,
2013-03-04 11:20:00,70.7,15.6,30.00,East,90,3.4,3.4,12,0.00,,---,0.00,VWS V14.01,2013-03-04 16:20:00,
2013-03-04 11:21:00,66.6,17.5,30.03,East,90,0.0,7.2,15,0.00,,---,0.00,VWS V14.01,2013-03-04 16:21:00,
2013-03-04 11:25:00,70.7,15.6,30.00,WNW,292,2.2,3.6,12,0.00,,---,0.00,VWS V14.01,2013-03-04 16:25:00,
2013-03-04 11:26:00,68.9,19.4,30.03,WNW,292,0.0,3.4,15,0.00,,---,0.00,VWS V14.01,2013-03-04 16:26:00,
2013-03-04 11:30:00,72.3,14.9,30.00,SW,225,4.9,4.9,11,0.00,,---,0.00,VWS V14.01,2013-03-04 16:30:00,
2013-03-04 11:31:00,67.1,17.9,30.03,West,270,1.3,5.6,15,0.00,,---,0.00,VWS V14.01,2013-03-04 16:31:00,
2013-03-04 11:35:00,71.4,16.2,30.00,SE,135,0.9,4.9,12,0.00,,---,0.00,VWS V14.01,2013-03-04 16:35:00,
2013-03-04 11:36:00,68.2,18.8,30.03,NNE,22,0.0,4.9,15,0.00,,---,0.00,VWS V14.01,2013-03-04 16:36:00,
2013-03-04 11:40:00,72.5,15.0,30.00,ENE,68,2.0,3.4,11,0.00,,---,0.00,VWS V14.01,2013-03-04 16:40:00,
2013-03-04 11:41:00,70.2,18.8,30.03,NE,45,2.7,2.7,14,0.00,,---,0.00,VWS V14.01,2013-03-04 16:41:00,
2013-03-04 11:45:00,72.0,14.6,30.00,ENE,68,1.1,5.8,11,0.00,,---,0.00,VWS V14.01,2013-03-04 16:45:00,
2013-03-04 11:46:00,70.9,19.4,30.03,NW,315,0.0,3.1,14,0.00,,---,0.00,VWS V14.01,2013-03-04 16:46:00,
2013-03-04 11:50:00,71.1,15.9,30.00,East,90,1.6,4.0,12,0.00,,---,0.00,VWS V14.01,2013-03-04 16:50:00,
2013-03-04 11:51:00,71.2,16.1,30.03,East,90,3.8,5.4,12,0.00,,---,0.00,VWS V14.01,2013-03-04 16:51:00,
2013-03-04 11:55:00,72.1,14.8,30.00,East,90,1.6,4.9,11,0.00,,---,0.00,VWS V14.01,2013-03-04 16:55:00,
2013-03-04 11:56:00,69.8,14.9,30.03,SSE,158,1.3,4.9,12,0.00,,---,0.00,VWS V14.01,2013-03-04 16:56:00,
2013-03-04 12:00:00,73.0,15.5,30.00,NNW,338,2.9,3.4,11,0.00,,---,0.00,VWS V14.01,2013-03-04 17:00:00,
2013-03-04 12:01:00,68.9,14.2,30.03,SSW,202,0.0,5.8,12,0.00,,---,0.00,VWS V14.01,2013-03-04 17:01:00,
2013-03-04 12:05:00,72.3,14.9,30.00,WNW,292,1.6,4.7,11,0.00,,---,0.00,VWS V14.01,2013-03-04 17:05:00,
2013-03-04 12:06:00,71.1,15.9,30.03,North,0,1.6,4.3,12,0.00,,---,0.00,VWS V14.01,2013-03-04 17:06:00,
2013-03-04 12:10:00,73.4,15.7,30.00,ENE,68,2.9,2.9,11,0.00,,---,0.00,VWS V14.01,2013-03-04 17:10:00,
2013-03-04 12:11:00,71.8,14.5,30.03,WNW,292,1.3,2.7,11,0.00,,---,0.00,VWS V14.01,2013-03-04 17:11:00,
2013-03-04 12:15:00,73.0,15.5,30.00,East,90,0.0,2.9,11,0.00,,---,0.00,VWS V14.01,2013-03-04 17:15:00,
2013-03-04 12:16:00,71.4,16.2,30.00,West,270,2.2,3.4,12,0.00,,---,0.00,VWS V14.01,2013-03-04 17:16:00,
2013-03-04 12:20:00,73.2,15.6,30.00,East,90,0.0,3.4,11,0.00,,---,0.00,VWS V14.01,2013-03-04 17:20:00,
2013-03-04 12:21:00,70.7,15.6,30.00,East,90,3.4,3.4,12,0.00,,---,0.00,VWS V14.01,2013-03-04 17:21:00,
2013-03-04 12:25:00,73.0,15.5,30.00,East,90,3.1,3.4,11,0.00,,---,0.00,VWS V14.01,2013-03-04 17:25:00,
2013-03-04 12:26:00,70.7,15.6,30.00,WNW,292,2.2,3.6,12,0.00,,---,0.00,VWS V14.01,2013-03-04 17:26:00,
2013-03-04 12:30:00,72.7,15.2,29.97,ENE,68,0.0,3.4,11,0.00,,---,0.00,VWS V14.01,2013-03-04 17:30:00,
2013-03-04 12:31:00,72.3,14.9,30.00,SW,225,4.9,4.9,11,0.00,,---,0.00,VWS V14.01,2013-03-04 17:31:00,
2013-03-04 12:35:00,71.2,16.1,29.97,SW,225,0.0,4.0,12,0.00,,---,0.00,VWS V14.01,2013-03-04 17:35:00,
2013-03-04 12:36:00,71.4,16.2,30.00,SE,135,0.9,4.9,12,0.00,,---,0.00,VWS V14.01,2013-03-04 17:36:00,
2013-03-04 12:40:00,68.9,14.2,29.97,SSW,202,0.0,0.0,12,0.00,,---,0.00,VWS V14.01,2013-03-04 17:40:00,
2013-03-04 12:41:00,72.5,15.0,30.00,ENE,68,2.0,3.4,11,0.00,,---,0.00,VWS V14.01,2013-03-04 17:41:00,
2013-03-04 12:45:00,68.0,9.4,29.97,SSE,158,0.9,4.0,10,0.00,,---,0.00,VWS V14.01,2013-03-04 17:45:00,
2013-03-04 12:46:00,72.0,14.6,30.00,ENE,68,1.1,5.8,11,0.00,,---,0.00,VWS V14.01,2013-03-04 17:46:00,
2013-03-04 12:50:00,67.1,8.7,29.97,WNW,292,3.6,4.3,10,0.00,,---,0.00,VWS V14.01,2013-03-04 17:50:00,
2013-03-04 12:51:00,71.1,15.9,30.00,East,90,1.6,4.0,12,0.00,,---,0.00,VWS V14.01,2013-03-04 17:51:00,
2013-03-04 12:55:00,66.2,8.1,29.97,NNW,338,0.0,3.6,10,0.00,,---,0.00,VWS V14.01,2013-03-04 17:55:00,
2013-03-04 12:56:00,72.1,14.8,30.00,East,90,1.6,4.9,11,0.00,,---,0.00,VWS V14.01,2013-03-04 17:56:00,
2013-03-04 13:00:00,66.6,12.4,29.97,West,270,0.0,3.4,12,0.00,,---,0.00,VWS V14.01,2013-03-04 18:00:00,
2013-03-04 13:01:00,73.0,15.5,30.00,NNW,338,2.9,3.4,11,0.00,,---,0.00,VWS V14.01,2013-03-04 18:01:00,
2013-03-04 13:05:00,66.2,8.1,29.97,WNW,292,2.0,3.1,10,0.00,,---,0.00,VWS V14.01,2013-03-04 18:05:00,
2013-03-04 13:06:00,72.3,14.9,30.00,WNW,292,1.6,4.7,11,0.00,,---,0.00,VWS V14.01,2013-03-04 18:06:00,
2013-03-04 13:10:00,65.5,13.4,29.97,NW,315,0.0,3.1,13,0.00,,---,0.00,VWS V14.01,2013-03-04 18:10:00,
2013-03-04 13:11:00,73.4,15.7,30.00,ENE,68,2.9,2.9,11,0.00,,---,0.00,VWS V14.01,2013-03-04 18:11:00,
2013-03-04 13:15:00,64.6,12.7,29.97,West,270,0.9,2.9,13,0.00,,---,0.00,VWS V14.01,2013-03-04 18:15:00,
2013-03-04 13:16:00,73.0,15.5,30.00,East,90,0.0,2.9,11,0.00,,---,0.00,VWS V14.01,2013-03-04 18:16:00,
2013-03-04 13:20:00,63.9,8.4,29.97,ENE,68,1.3,4.0,11,0.00,,---,0.00,VWS V14.01,2013-03-04 18:20:00,
2013-03-04 13:21:00,73.2,15.6,30.00,East,90,0.0,3.4,11,0.00,,---,0.00,VWS V14.01,2013-03-04 18:21:00,
2013-03-04 13:25:00,64.2,12.4,29.97,WSW,248,4.7,4.7,13,0.00,,---,0.00,VWS V14.01,2013-03-04 18:25:00,
2013-03-04 13:26:00,73.0,15.5,30.00,East,90,3.1,3.4,11,0.00,,---,0.00,VWS V14.01,2013-03-04 18:26:00,
2013-03-04 13:29:00,72.3,14.9,29.97,NW,315,0.0,3.4,11,0.00,,---,0.00,VWS V14.01,2013-03-04 18:29:00,
2013-03-04 13:30:00,63.9,12.1,29.97,ENE,68,1.3,4.7,13,0.00,,---,0.00,VWS V14.01,2013-03-04 18:30:00,
2013-03-04 13:34:00,72.3,14.9,29.97,West,270,1.6,4.0,11,0.00,,---,0.00,VWS V14.01,2013-03-04 18:34:00,
2013-03-04 13:35:00,64.2,12.4,29.97,West,270,4.0,4.0,13,0.00,,---,0.00,VWS V14.01,2013-03-04 18:35:00,
2013-03-04 13:39:00,69.6,14.8,29.97,WSW,248,0.0,0.0,12,0.00,,---,0.00,VWS V14.01,2013-03-04 18:39:00,
2013-03-04 13:40:00,64.2,12.4,29.97,WNW,292,1.6,4.0,13,0.00,,---,0.00,VWS V14.01,2013-03-04 18:40:00,
2013-03-04 13:41:00,68.9,14.2,29.97,SSW,202,0.0,0.0,12,0.00,,---,0.00,VWS V14.01,2013-03-04 18:41:00,
2013-03-04 13:45:00,64.0,12.2,29.97,NNE,22,0.9,3.1,13,0.00,,---,0.00,VWS V14.01,2013-03-04 18:45:00,
2013-03-04 13:46:00,68.0,9.4,29.97,SSE,158,0.9,4.0,10,0.00,,---,0.00,VWS V14.01,2013-03-04 18:46:00,
2013-03-04 13:50:00,63.9,12.1,29.97,SSE,158,0.0,2.5,13,0.00,,---,0.00,VWS V14.01,2013-03-04 18:50:00,
2013-03-04 13:51:00,67.1,8.7,29.97,WNW,292,3.6,4.3,10,0.00,,---,0.00,VWS V14.01,2013-03-04 18:51:00,
2013-03-04 13:55:00,64.0,12.2,29.97,SSW,202,0.0,3.4,13,0.00,,---,0.00,VWS V14.01,2013-03-04 18:55:00,
2013-03-04 13:56:00,66.2,8.1,29.97,NNW,338,0.0,3.6,10,0.00,,---,0.00,VWS V14.01,2013-03-04 18:56:00,
2013-03-04 14:00:00,63.9,12.1,29.94,NNW,338,0.0,3.4,13,0.00,,---,0.00,VWS V14.01,2013-03-04 19:00:00,
2013-03-04 14:01:00,66.6,12.4,29.97,West,270,0.0,3.4,12,0.00,,---,0.00,VWS V14.01,2013-03-04 19:01:00,
2013-03-04 14:05:00,64.2,12.4,29.94,WNW,292,0.0,3.1,13,0.00,,---,0.00,VWS V14.01,2013-03-04 19:05:00,
2013-03-04 14:06:00,66.2,8.1,29.97,WNW,292,2.0,3.1,10,0.00,,---,0.00,VWS V14.01,2013-03-04 19:06:00,
2013-03-04 14:10:00,64.8,12.8,29.94,East,90,0.0,2.5,13,0.00,,---,0.00,VWS V14.01,2013-03-04 19:10:00,
2013-03-04 14:11:00,65.5,13.4,29.97,NW,315,0.0,3.1,13,0.00,,---,0.00,VWS V14.01,2013-03-04 19:11:00,
2013-03-04 14:15:00,65.7,13.5,29.94,West,270,0.9,2.9,13,0.00,,---,0.00,VWS V14.01,2013-03-04 19:15:00,
2013-03-04 14:16:00,64.6,12.7,29.97,West,270,0.9,2.9,13,0.00,,---,0.00,VWS V14.01,2013-03-04 19:16:00,
2013-03-04 14:20:00,66.6,12.4,29.94,WNW,292,2.2,3.1,12,0.00,,---,0.00,VWS V14.01,2013-03-04 19:20:00,
2013-03-04 14:21:00,63.9,8.4,29.97,ENE,68,1.3,4.0,11,0.00,,---,0.00,VWS V14.01,2013-03-04 19:21:00,
2013-03-04 14:25:00,67.6,13.2,29.94,East,90,2.2,2.7,12,0.00,,---,0.00,VWS V14.01,2013-03-04 19:25:00,
2013-03-04 14:26:00,64.2,12.4,29.97,WSW,248,4.7,4.7,13,0.00,,---,0.00,VWS V14.01,2013-03-04 19:26:00,
2013-03-04 14:30:00,67.3,13.0,29.94,West,270,0.0,4.0,12,0.00,,---,0.00,VWS V14.01,2013-03-04 19:30:00,
2013-03-04 14:31:00,63.9,12.1,29.97,ENE,68,1.3,4.7,13,0.00,,---,0.00,VWS V14.01,2013-03-04 19:31:00,
2013-03-04 14:35:00,66.7,12.5,29.94,NW,315,0.0,2.7,12,0.00,,---,0.00,VWS V14.01,2013-03-04 19:35:00,
2013-03-04 14:36:00,64.2,12.4,29.97,West,270,4.0,4.0,13,0.00,,---,0.00,VWS V14.01,2013-03-04 19:36:00,
2013-03-04 14:40:00,66.0,13.8,29.94,WNW,292,2.7,3.8,13,0.00,,---,0.00,VWS V14.01,2013-03-04 19:40:00,
2013-03-04 14:41:00,64.2,12.4,29.97,WNW,292,1.6,4.0,13,0.00,,---,0.00,VWS V14.01,2013-03-04 19:41:00,
2013-03-04 14:45:00,65.8,13.6,29.94,ENE,68,0.0,3.6,13,0.00,,---,0.00,VWS V14.01,2013-03-04 19:45:00,
2013-03-04 14:46:00,64.0,12.2,29.97,NNE,22,0.9,3.1,13,0.00,,---,0.00,VWS V14.01,2013-03-04 19:46:00,
2013-03-04 14:50:00,65.7,13.5,29.94,ENE,68,0.9,2.0,13,0.00,,---,0.00,VWS V14.01,2013-03-04 19:50:00,
2013-03-04 14:51:00,63.9,12.1,29.97,SSE,158,0.0,2.5,13,0.00,,---,0.00,VWS V14.01,2013-03-04 19:51:00,
2013-03-04 14:55:00,65.5,13.4,29.94,North,0,0.0,3.6,13,0.00,,---,0.00,VWS V14.01,2013-03-04 19:55:00,
2013-03-04 14:56:00,64.0,12.2,29.97,SSW,202,0.0,3.4,13,0.00,,---,0.00,VWS V14.01,2013-03-04 19:56:00,
2013-03-04 15:00:00,65.1,13.1,29.94,West,270,0.0,2.2,13,0.00,,---,0.00,VWS V14.01,2013-03-04 20:00:00,
2013-03-04 15:01:00,63.9,12.1,29.94,NNW,338,0.0,3.4,13,0.00,,---,0.00,VWS V14.01,2013-03-04 20:01:00,
2013-03-04 15:05:00,64.9,12.9,29.94,WNW,292,0.0,1.3,13,0.00,,---,0.00,VWS V14.01,2013-03-04 20:05:00,
2013-03-04 15:06:00,64.2,12.4,29.94,WNW,292,0.0,3.1,13,0.00,,---,0.00,VWS V14.01,2013-03-04 20:06:00,
2013-03-04 15:10:00,64.9,12.9,29.94,WSW,248,0.0,2.7,13,0.00,,---,0.00,VWS V14.01,2013-03-04 20:10:00,
2013-03-04 15:11:00,64.8,12.8,29.94,East,90,0.0,2.5,13,0.00,,---,0.00,VWS V14.01,2013-03-04 20:11:00,
2013-03-04 15:15:00,64.4,12.5,29.94,SSW,202,0.0,2.2,13,0.00,,---,0.00,VWS V14.01,2013-03-04 20:15:00,
2013-03-04 15:16:00,65.7,13.5,29.94,West,270,0.9,2.9,13,0.00,,---,0.00,VWS V14.01,2013-03-04 20:16:00,
2013-03-04 15:20:00,64.4,12.5,29.94,SW,225,0.0,2.7,13,0.00,,---,0.00,VWS V14.01,2013-03-04 20:20:00,
2013-03-04 15:21:00,66.6,12.4,29.94,WNW,292,2.2,3.1,12,0.00,,---,0.00,VWS V14.01,2013-03-04 20:21:00,
2013-03-04 15:25:00,64.4,12.5,29.94,West,270,0.0,3.6,13,0.00,,---,0.00,VWS V14.01,2013-03-04 20:25:00,
2013-03-04 15:26:00,67.6,13.2,29.94,East,90,2.2,2.7,12,0.00,,---,0.00,VWS V14.01,2013-03-04 20:26:00,
2013-03-04 15:30:00,64.2,12.4,29.94,WSW,248,3.1,3.1,13,0.00,,---,0.00,VWS V14.01,2013-03-04 20:30:00,
2013-03-04 15:31:00,67.3,13.0,29.94,West,270,0.0,4.0,12,0.00,,---,0.00,VWS V14.01,2013-03-04 20:31:00,
2013-03-04 15:35:00,64.2,12.4,29.94,SSW,202,0.0,3.1,13,0.00,,---,0.00,VWS V14.01,2013-03-04 20:35:00,
2013-03-04 15:36:00,66.7,12.5,29.94,NW,315,0.0,2.7,12,0.00,,---,0.00,VWS V14.01,2013-03-04 20:36:00,
2013-03-04 15:40:00,63.9,12.1,29.94,North,0,0.0,2.7,13,0.00,,---,0.00,VWS V14.01,2013-03-04 20:40:00,
2013-03-04 15:41:00,66.0,13.8,29.94,WNW,292,2.7,3.8,13,0.00,,---,0.00,VWS V14.01,2013-03-04 20:41:00,
2013-03-04 15:45:00,63.7,11.9,29.94,WNW,292,0.0,0.0,13,0.00,,---,0.00,VWS V14.01,2013-03-04 20:45:00,
2013-03-04 15:46:00,65.8,13.6,29.94,ENE,68,0.0,3.6,13,0.00,,---,0.00,VWS V14.01,2013-03-04 20:46:00,
2013-03-04 15:50:00,63.3,11.7,29.94,WNW,292,0.0,2.0,13,0.00,,---,0.00,VWS V14.01,2013-03-04 20:50:00,
2013-03-04 15:51:00,65.7,13.5,29.94,ENE,68,0.9,2.0,13,0.00,,---,0.00,VWS V14.01,2013-03-04 20:51:00,
2013-03-04 15:55:00,63.1,11.5,29.94,ESE,112,0.0,1.3,13,0.00,,---,0.00,VWS V14.01,2013-03-04 20:55:00,
2013-03-04 15:56:00,65.5,13.4,29.94,North,0,0.0,3.6,13,0.00,,---,0.00,VWS V14.01,2013-03-04 20:56:00,
2013-03-04 16:00:00,62.8,11.2,29.94,WSW,248,0.0,2.0,13,0.00,,---,0.00,VWS V14.01,2013-03-04 21:00:00,
2013-03-04 16:01:00,65.1,13.1,29.94,West,270,0.0,2.2,13,0.00,,---,0.00,VWS V14.01,2013-03-04 21:01:00,
2013-03-04 16:05:00,62.4,12.6,29.94,West,270,0.0,0.0,14,0.00,,---,0.00,VWS V14.01,2013-03-04 21:05:00,
2013-03-04 16:06:00,64.9,12.9,29.94,WNW,292,0.0,1.3,13,0.00,,---,0.00,VWS V14.01,2013-03-04 21:06:00,
2013-03-04 16:10:00,62.2,12.5,29.94,West,270,0.0,0.0,14,0.00,,---,0.00,VWS V14.01,2013-03-04 21:10:00,
2013-03-04 16:11:00,64.9,12.9,29.94,WSW,248,0.0,2.7,13,0.00,,---,0.00,VWS V14.01,2013-03-04 21:11:00,
2013-03-04 16:15:00,61.9,12.2,29.94,SSW,202,0.0,0.0,14,0.00,,---,0.00,VWS V14.01,2013-03-04 21:15:00,
2013-03-04 16:16:00,64.4,12.5,29.94,SSW,202,0.0,2.2,13,0.00,,---,0.00,VWS V14.01,2013-03-04 21:16:00,
2013-03-04 16:20:00,61.3,11.8,29.94,SW,225,0.0,0.0,14,0.00,,---,0.00,VWS V14.01,2013-03-04 21:20:00,
2013-03-04 16:21:00,64.4,12.5,29.94,SW,225,0.0,2.7,13,0.00,,---,0.00,VWS V14.01,2013-03-04 21:21:00,
2013-03-04 16:25:00,61.3,11.8,29.94,West,270,0.0,0.0,14,0.00,,---,0.00,VWS V14.01,2013-03-04 21:25:00,
2013-03-04 16:26:00,64.4,12.5,29.94,West,270,0.0,3.6,13,0.00,,---,0.00,VWS V14.01,2013-03-04 21:26:00,
2013-03-04 16:30:00,61.0,11.5,29.94,West,270,0.0,0.0,14,0.00,,---,0.00,VWS V14.01,2013-03-04 21:30:00,
2013-03-04 16:31:00,64.2,12.4,29.94,WSW,248,3.1,3.1,13,0.00,,---,0.00,VWS V14.01,2013-03-04 21:31:00,
2013-03-04 16:35:00,60.6,11.2,29.94,SSE,158,0.0,0.0,14,0.00,,---,0.00,VWS V14.01,2013-03-04 21:35:00,
2013-03-04 16:36:00,64.2,12.4,29.94,SSW,202,0.0,3.1,13,0.00,,---,0.00,VWS V14.01,2013-03-04 21:36:00,
2013-03-04 16:40:00,59.7,10.5,29.94,ENE,68,0.0,0.0,14,0.00,,---,0.00,VWS V14.01,2013-03-04 21:40:00,
2013-03-04 16:41:00,63.9,12.1,29.94,North,0,0.0,2.7,13,0.00,,---,0.00,VWS V14.01,2013-03-04 21:41:00,
2013-03-04 16:45:00,59.5,10.3,29.97,SE,135,0.0,0.0,14,0.00,,---,0.00,VWS V14.01,2013-03-04 21:45:00,
2013-03-04 16:46:00,63.7,11.9,29.94,WNW,292,0.0,0.0,13,0.00,,---,0.00,VWS V14.01,2013-03-04 21:46:00,
2013-03-04 16:50:00,59.4,10.2,29.97,SSW,202,0.0,0.0,14,0.00,,---,0.00,VWS V14.01,2013-03-04 21:50:00,
2013-03-04 16:51:00,63.3,11.7,29.94,WNW,292,0.0,2.0,13,0.00,,---,0.00,VWS V14.01,2013-03-04 21:51:00,
2013-03-04 16:55:00,59.2,10.0,29.97,SSW,202,0.0,0.0,14,0.00,,---,0.00,VWS V14.01,2013-03-04 21:55:00,
2013-03-04 16:56:00,63.1,11.5,29.94,ESE,112,0.0,1.3,13,0.00,,---,0.00,VWS V14.01,2013-03-04 21:56:00,
2013-03-04 17:00:00,59.0,9.9,29.97,SSW,202,0.0,0.0,14,0.00,,---,0.00,VWS V14.01,2013-03-04 22:00:00,
2013-03-04 17:01:00,62.8,11.2,29.94,WSW,248,0.0,2.0,13,0.00,,---,0.00,VWS V14.01,2013-03-04 22:01:00,
2013-03-04 17:05:00,58.5,9.5,29.97,SSW,202,0.0,0.0,14,0.00,,---,0.00,VWS V14.01,2013-03-04 22:05:00,
2013-03-04 17:06:00,62.4,12.6,29.94,West,270,0.0,0.0,14,0.00,,---,0.00,VWS V14.01,2013-03-04 22:06:00,
2013-03-04 17:10:00,58.1,9.2,29.97,SSW,202,0.0,0.0,14,0.00,,---,0.00,VWS V14.01,2013-03-04 22:10:00,
2013-03-04 17:11:00,62.2,12.5,29.94,West,270,0.0,0.0,14,0.00,,---,0.00,VWS V14.01,2013-03-04 22:11:00,
2013-03-04 17:15:00,57.6,8.7,29.97,SSW,202,0.0,0.0,14,0.00,,---,0.00,VWS V14.01,2013-03-04 22:15:00,
2013-03-04 17:16:00,61.9,12.2,29.94,SSW,202,0.0,0.0,14,0.00,,---,0.00,VWS V14.01,2013-03-04 22:16:00,
2013-03-04 17:20:00,56.7,9.6,29.97,SSW,202,0.0,0.0,15,0.00,,---,0.00,VWS V14.01,2013-03-04 22:20:00,
2013-03-04 17:21:00,61.3,11.8,29.94,SW,225,0.0,0.0,14,0.00,,---,0.00,VWS V14.01,2013-03-04 22:21:00,
2013-03-04 17:25:00,57.0,9.8,29.97,SSW,202,0.0,0.0,15,0.00,,---,0.00,VWS V14.01,2013-03-04 22:25:00,
2013-03-04 17:26:00,61.3,11.8,29.94,West,270,0.0,0.0,14,0.00,,---,0.00,VWS V14.01,2013-03-04 22:26:00,
2013-03-04 17:30:00,55.9,9.0,29.97,SSW,202,0.0,0.0,15,0.00,,---,0.00,VWS V14.01,2013-03-04 22:30:00,
2013-03-04 17:31:00,61.0,11.5,29.94,West,270,0.0,0.0,14,0.00,,---,0.00,VWS V14.01,2013-03-04 22:31:00,
2013-03-04 17:35:00,55.2,8.4,29.97,SSW,202,0.0,0.0,15,0.00,,---,0.00,VWS V14.01,2013-03-04 22:35:00,
2013-03-04 17:36:00,60.6,11.2,29.94,SSE,158,0.0,0.0,14,0.00,,---,0.00,VWS V14.01,2013-03-04 22:36:00,
2013-03-04 17:40:00,54.9,12.2,29.97,SSE,158,0.0,0.0,18,0.00,,---,0.00,VWS V14.01,2013-03-04 22:40:00,
2013-03-04 17:41:00,59.7,10.5,29.94,ENE,68,0.0,0.0,14,0.00,,---,0.00,VWS V14.01,2013-03-04 22:41:00,
2013-03-04 17:45:00,54.1,11.6,29.97,SSW,202,0.0,0.0,18,0.00,,---,0.00,VWS V14.01,2013-03-04 22:45:00,
2013-03-04 17:46:00,59.5,10.3,29.97,SE,135,0.0,0.0,14,0.00,,---,0.00,VWS V14.01,2013-03-04 22:46:00,
2013-03-04 17:50:00,54.7,14.4,29.97,West,270,2.9,2.9,20,0.00,,---,0.00,VWS V14.01,2013-03-04 22:50:00,
2013-03-04 17:51:00,59.4,10.2,29.97,SSW,202,0.0,0.0,14,0.00,,---,0.00,VWS V14.01,2013-03-04 22:51:00,
2013-03-04 17:55:00,54.9,17.8,29.97,SW,225,0.0,3.6,23,0.00,,---,0.00,VWS V14.01,2013-03-04 22:55:00,
2013-03-04 17:56:00,59.2,10.0,29.97,SSW,202,0.0,0.0,14,0.00,,---,0.00,VWS V14.01,2013-03-04 22:56:00,
2013-03-04 18:00:00,54.1,17.2,29.97,SSE,158,0.0,0.0,23,0.00,,---,0.00,VWS V14.01,2013-03-04 23:00:00,
2013-03-04 18:05:00,58.5,9.5,29.97,SSW,202,0.0,0.0,14,0.00,,---,0.00,VWS V14.01,2013-03-04 23:05:00,
2013-03-04 18:10:00,58.1,9.2,29.97,SSW,202,0.0,0.0,14,0.00,,---,0.00,VWS V14.01,2013-03-04 23:10:00,
2013-03-04 18:15:00,57.6,8.7,29.97,SSW,202,0.0,0.0,14,0.00,,---,0.00,VWS V14.01,2013-03-04 23:15:00,
2013-03-04 18:20:00,56.5,9.4,29.97,SSW,202,0.0,0.0,15,0.00,,---,0.00,VWS V14.01,2013-03-04 23:20:00,
2013-03-04 18:25:00,57.2,8.4,29.97,SSW,202,0.0,0.0,14,0.00,,---,0.00,VWS V14.01,2013-03-04 23:25:00,
2013-03-04 18:30:00,55.9,9.0,29.97,SSW,202,0.0,0.0,15,0.00,,---,0.00,VWS V14.01,2013-03-04 23:30:00,
2013-03-04 18:35:00,55.2,8.4,29.97,SSW,202,0.0,0.0,15,0.00,,---,0.00,VWS V14.01,2013-03-04 23:35:00,
2013-03-04 18:40:00,54.9,12.2,29.97,SSE,158,0.0,0.0,18,0.00,,---,0.00,VWS V14.01,2013-03-04 23:40:00,
2013-03-04 18:45:00,54.1,11.6,29.97,SSW,202,0.0,0.0,18,0.00,,---,0.00,VWS V14.01,2013-03-04 23:45:00,
2013-03-04 18:50:00,54.5,11.9,29.97,WSW,248,2.7,2.7,18,0.00,,---,0.00,VWS V14.01,2013-03-04 23:50:00,
2013-03-04 18:55:00,54.9,17.8,29.97,South,180,0.9,3.6,23,0.00,,---,0.00,VWS V14.01,2013-03-04 23:55:00,
2013-03-04 19:00:00,54.1,17.2,29.97,SSE,158,0.0,0.0,23,0.00,,---,0.00,VWS V14.01,2013-03-05 00:00:00,
2013-03-04 19:05:00,54.0,19.0,29.97,SSW,202,0.0,0.0,25,0.00,,---,0.00,VWS V14.01,2013-03-05 00:05:00,
2013-03-04 19:10:00,52.7,18.8,29.97,North,0,0.0,0.0,26,0.00,,---,0.00,VWS V14.01,2013-03-05 00:10:00,
2013-03-04 19:15:00,52.9,19.0,29.97,NW,315,0.0,0.0,26,0.00,,---,0.00,VWS V14.01,2013-03-05 00:15:00,
2013-03-04 19:20:00,52.5,18.6,29.97,SSW,202,0.0,0.0,26,0.00,,---,0.00,VWS V14.01,2013-03-05 00:20:00,
2013-03-04 19:25:00,51.4,18.6,29.97,SW,225,0.0,0.0,27,0.00,,---,0.00,VWS V14.01,2013-03-05 00:25:00,
2013-03-04 19:30:00,50.7,18.0,29.97,WSW,248,0.0,0.0,27,0.00,,---,0.00,VWS V14.01,2013-03-05 00:30:00,
2013-03-04 19:35:00,50.4,17.7,29.97,WSW,248,0.0,0.0,27,0.00,,---,0.00,VWS V14.01,2013-03-05 00:35:00,
2013-03-04 19:40:00,50.4,17.7,29.97,WSW,248,0.0,0.0,27,0.00,,---,0.00,VWS V14.01,2013-03-05 00:40:00,
2013-03-04 19:45:00,49.6,17.9,30.00,WSW,248,0.0,0.0,28,0.00,,---,0.00,VWS V14.01,2013-03-05 00:45:00,
2013-03-04 19:50:00,49.6,17.9,30.00,WSW,248,0.0,0.0,28,0.00,,---,0.00,VWS V14.01,2013-03-05 00:50:00,
2013-03-04 19:55:00,49.1,17.4,30.00,WSW,248,0.0,0.0,28,0.00,,---,0.00,VWS V14.01,2013-03-05 00:55:00,
2013-03-04 20:00:00,48.6,17.8,30.00,WSW,248,0.0,0.0,29,0.00,,---,0.00,VWS V14.01,2013-03-05 01:00:00,
2013-03-04 20:05:00,48.0,18.1,30.00,WSW,248,0.0,0.0,30,0.00,,---,0.00,VWS V14.01,2013-03-05 01:05:00,
2013-03-04 20:10:00,47.3,17.5,30.00,WSW,248,0.0,0.0,30,0.00,,---,0.00,VWS V14.01,2013-03-05 01:10:00,
2013-03-04 20:15:00,48.2,19.0,30.00,SSE,158,0.0,0.0,31,0.00,,---,0.00,VWS V14.01,2013-03-05 01:15:00,
2013-03-04 20:20:00,48.4,20.6,30.00,SSE,158,0.0,0.0,33,0.00,,---,0.00,VWS V14.01,2013-03-05 01:20:00,
2013-03-04 20:25:00,48.0,20.3,30.00,South,180,0.0,0.0,33,0.00,,---,0.00,VWS V14.01,2013-03-05 01:25:00,
2013-03-04 20:30:00,47.3,20.4,30.00,South,180,0.0,0.0,34,0.00,,---,0.00,VWS V14.01,2013-03-05 01:30:00,
2013-03-04 20:35:00,46.9,20.0,30.00,South,180,0.0,0.0,34,0.00,,---,0.00,VWS V14.01,2013-03-05 01:35:00,
2013-03-04 20:40:00,46.0,19.9,30.00,South,180,0.0,0.0,35,0.00,,---,0.00,VWS V14.01,2013-03-05 01:40:00,
2013-03-04 20:45:00,46.0,20.6,30.00,SSW,202,0.0,0.0,36,0.00,,---,0.00,VWS V14.01,2013-03-05 01:45:00,
2013-03-04 20:50:00,45.9,20.4,30.00,SSW,202,0.0,0.0,36,0.00,,---,0.00,VWS V14.01,2013-03-05 01:50:00,
2013-03-04 20:55:00,45.9,21.1,30.00,South,180,0.0,0.0,37,0.00,,---,0.00,VWS V14.01,2013-03-05 01:55:00,
2013-03-04 21:00:00,45.1,20.4,30.00,South,180,0.0,0.0,37,0.00,,---,0.00,VWS V14.01,2013-03-05 02:00:00,
2013-03-04 21:05:00,45.3,21.2,30.00,SSE,158,0.0,0.0,38,0.00,,---,0.00,VWS V14.01,2013-03-05 02:05:00,
2013-03-04 21:10:00,41.4,19.4,30.00,SE,135,0.0,0.0,41,0.00,,---,0.00,VWS V14.01,2013-03-05 02:10:00,
2013-03-04 21:11:00,45.0,20.9,30.00,SSE,158,0.0,0.0,38,0.00,,---,0.00,VWS V14.01,2013-03-05 02:11:00,
2013-03-04 21:15:00,41.5,20.2,30.00,SE,135,0.0,0.0,42,0.00,,---,0.00,VWS V14.01,2013-03-05 02:15:00,
2013-03-04 21:16:00,44.8,20.7,30.00,SSE,158,0.0,0.0,38,0.00,,---,0.00,VWS V14.01,2013-03-05 02:16:00,
2013-03-04 21:20:00,41.2,19.9,30.00,SE,135,0.0,0.0,42,0.00,,---,0.00,VWS V14.01,2013-03-05 02:20:00,
2013-03-04 21:21:00,44.6,20.6,30.00,SSE,158,0.0,0.0,38,0.00,,---,0.00,VWS V14.01,2013-03-05 02:21:00,
2013-03-04 21:25:00,40.6,19.9,30.00,SE,135,0.0,0.0,43,0.00,,---,0.00,VWS V14.01,2013-03-05 02:25:00,
2013-03-04 21:26:00,44.4,21.0,30.00,SSE,158,0.0,0.0,39,0.00,,---,0.00,VWS V14.01,2013-03-05 02:26:00,
2013-03-04 21:30:00,40.6,19.9,30.00,SSE,158,0.0,0.0,43,0.00,,---,0.00,VWS V14.01,2013-03-05 02:30:00,
2013-03-04 21:31:00,43.5,20.2,30.00,WSW,248,0.0,0.0,39,0.00,,---,0.00,VWS V14.01,2013-03-05 02:31:00,
2013-03-04 21:35:00,40.6,20.5,30.00,SSE,158,0.0,0.0,44,0.00,,---,0.00,VWS V14.01,2013-03-05 02:35:00,
2013-03-04 21:36:00,44.2,20.9,30.00,SSW,202,0.0,0.0,39,0.00,,---,0.00,VWS V14.01,2013-03-05 02:36:00,
2013-03-04 21:40:00,40.3,20.1,30.00,SSE,158,0.0,0.0,44,0.00,,---,0.00,VWS V14.01,2013-03-05 02:40:00,
2013-03-04 21:41:00,44.1,20.7,30.00,SSW,202,0.0,0.0,39,0.00,,---,0.00,VWS V14.01,2013-03-05 02:41:00,
2013-03-04 21:45:00,39.7,20.1,30.00,SSE,158,0.0,0.0,45,0.00,,---,0.00,VWS V14.01,2013-03-05 02:45:00,
2013-03-04 21:46:00,43.3,20.1,30.00,ENE,68,0.0,0.0,39,0.00,,---,0.00,VWS V14.01,2013-03-05 02:46:00,
2013-03-04 21:50:00,39.7,20.1,30.00,SSE,158,0.0,0.0,45,0.00,,---,0.00,VWS V14.01,2013-03-05 02:50:00,
2013-03-04 21:51:00,42.4,19.8,30.00,East,90,0.0,0.0,40,0.00,,---,0.00,VWS V14.01,2013-03-05 02:51:00,
2013-03-04 21:55:00,39.7,20.7,30.00,SSE,158,0.0,0.0,46,0.00,,---,0.00,VWS V14.01,2013-03-05 02:55:00,
2013-03-04 21:56:00,42.8,20.2,30.00,SE,135,0.0,0.0,40,0.00,,---,0.00,VWS V14.01,2013-03-05 02:56:00,
2013-03-04 22:00:00,39.9,21.8,30.00,SSE,158,0.0,0.0,48,0.00,,---,0.00,VWS V14.01,2013-03-05 03:00:00,
2013-03-04 22:01:00,42.4,20.4,30.00,SE,135,0.0,0.0,41,0.00,,---,0.00,VWS V14.01,2013-03-05 03:01:00,
2013-03-04 22:05:00,39.6,22.0,30.00,SSE,158,0.0,0.0,49,0.00,,---,0.00,VWS V14.01,2013-03-05 03:05:00,
2013-03-04 22:06:00,41.7,19.8,30.00,SE,135,0.0,0.0,41,0.00,,---,0.00,VWS V14.01,2013-03-05 03:06:00,
2013-03-04 22:10:00,39.4,21.8,30.00,SSE,158,0.0,0.0,49,0.00,,---,0.00,VWS V14.01,2013-03-05 03:10:00,
2013-03-04 22:11:00,41.4,19.5,30.00,SE,135,0.0,0.0,41,0.00,,---,0.00,VWS V14.01,2013-03-05 03:11:00,
2013-03-04 22:15:00,38.8,21.3,30.00,SSE,158,0.0,0.0,49,0.00,,---,0.00,VWS V14.01,2013-03-05 03:15:00,
2013-03-04 22:16:00,41.5,20.2,30.00,SE,135,0.0,0.0,42,0.00,,---,0.00,VWS V14.01,2013-03-05 03:16:00,
2013-03-04 22:20:00,39.0,22.0,30.00,East,90,0.0,0.0,50,0.00,,---,0.00,VWS V14.01,2013-03-05 03:20:00,
2013-03-04 22:21:00,41.2,19.9,30.00,SE,135,0.0,0.0,42,0.00,,---,0.00,VWS V14.01,2013-03-05 03:21:00,
2013-03-04 22:25:00,38.8,21.8,30.00,ESE,112,0.0,0.0,50,0.00,,---,0.00,VWS V14.01,2013-03-05 03:25:00,
2013-03-04 22:26:00,40.6,19.9,30.00,SE,135,0.0,0.0,43,0.00,,---,0.00,VWS V14.01,2013-03-05 03:26:00,
2013-03-04 22:30:00,38.7,22.1,30.00,ESE,112,0.0,0.0,51,0.00,,---,0.00,VWS V14.01,2013-03-05 03:30:00,
2013-03-04 22:31:00,40.6,19.9,30.00,SSE,158,0.0,0.0,43,0.00,,---,0.00,VWS V14.01,2013-03-05 03:31:00,
2013-03-04 22:35:00,38.7,24.3,30.00,ESE,112,0.0,0.0,56,0.00,,---,0.00,VWS V14.01,2013-03-05 03:35:00,
2013-03-04 22:36:00,40.6,20.5,30.00,SSE,158,0.0,0.0,44,0.00,,---,0.00,VWS V14.01,2013-03-05 03:36:00,
2013-03-04 22:40:00,38.8,23.2,30.00,East,90,0.0,0.0,53,0.00,,---,0.00,VWS V14.01,2013-03-05 03:40:00,
2013-03-04 22:41:00,40.3,20.1,30.00,SSE,158,0.0,0.0,44,0.00,,---,0.00,VWS V14.01,2013-03-05 03:41:00,
2013-03-04 22:45:00,39.2,23.1,29.97,SSE,158,0.0,0.0,52,0.00,,---,0.00,VWS V14.01,2013-03-05 03:45:00,
2013-03-04 22:46:00,39.7,20.1,30.00,SSE,158,0.0,0.0,45,0.00,,---,0.00,VWS V14.01,2013-03-05 03:46:00,
2013-03-04 22:50:00,39.6,23.9,29.97,SSE,158,0.0,0.0,53,0.00,,---,0.00,VWS V14.01,2013-03-05 03:50:00,
2013-03-04 22:51:00,39.7,20.1,30.00,SSE,158,0.0,0.0,45,0.00,,---,0.00,VWS V14.01,2013-03-05 03:51:00,
2013-03-04 22:55:00,39.6,23.9,29.97,SSE,158,0.0,0.0,53,0.00,,---,0.00,VWS V14.01,2013-03-05 03:55:00,
2013-03-04 22:56:00,39.7,20.7,30.00,SSE,158,0.0,0.0,46,0.00,,---,0.00,VWS V14.01,2013-03-05 03:56:00,
2013-03-04 23:00:00,39.9,24.6,29.97,SSW,202,0.0,0.0,54,0.00,,---,0.00,VWS V14.01,2013-03-05 04:00:00,
2013-03-04 23:01:00,39.9,21.8,30.00,SSE,158,0.0,0.0,48,0.00,,---,0.00,VWS V14.01,2013-03-05 04:01:00,
2013-03-04 23:05:00,39.9,24.2,29.97,SW,225,0.0,0.0,53,0.00,,---,0.00,VWS V14.01,2013-03-05 04:05:00,
2013-03-04 23:06:00,39.6,22.0,30.00,SSE,158,0.0,0.0,49,0.00,,---,0.00,VWS V14.01,2013-03-05 04:06:00,
2013-03-04 23:10:00,39.7,24.5,29.97,SSW,202,0.0,0.0,54,0.00,,---,0.00,VWS V14.01,2013-03-05 04:10:00,
2013-03-04 23:11:00,39.4,21.8,30.00,SSE,158,0.0,0.0,49,0.00,,---,0.00,VWS V14.01,2013-03-05 04:11:00,
2013-03-04 23:15:00,39.0,23.8,29.97,SSE,158,0.0,0.0,54,0.00,,---,0.00,VWS V14.01,2013-03-05 04:15:00,
2013-03-04 23:16:00,38.8,21.3,30.00,SSE,158,0.0,0.0,49,0.00,,---,0.00,VWS V14.01,2013-03-05 04:16:00,
2013-03-04 23:20:00,39.2,23.5,29.97,SSW,202,0.0,0.0,53,0.00,,---,0.00,VWS V14.01,2013-03-05 04:20:00,
2013-03-04 23:21:00,39.0,22.0,30.00,East,90,0.0,0.0,50,0.00,,---,0.00,VWS V14.01,2013-03-05 04:21:00,
2013-03-04 23:25:00,39.2,23.5,29.97,South,180,0.0,0.0,53,0.00,,---,0.00,VWS V14.01,2013-03-05 04:25:00,
2013-03-04 23:26:00,38.8,21.8,30.00,ESE,112,0.0,0.0,50,0.00,,---,0.00,VWS V14.01,2013-03-05 04:26:00,
2013-03-04 23:30:00,38.5,22.9,29.97,South,180,0.0,0.0,53,0.00,,---,0.00,VWS V14.01,2013-03-05 04:30:00,
2013-03-04 23:31:00,38.7,22.1,30.00,ESE,112,0.0,0.0,51,0.00,,---,0.00,VWS V14.01,2013-03-05 04:31:00,
2013-03-04 23:35:00,37.9,22.4,29.97,South,180,0.0,0.0,53,0.00,,---,0.00,VWS V14.01,2013-03-05 04:35:00,
2013-03-04 23:36:00,38.7,24.3,30.00,ESE,112,0.0,0.0,56,0.00,,---,0.00,VWS V14.01,2013-03-05 04:36:00,
2013-03-04 23:40:00,38.1,22.5,29.97,South,180,0.0,0.0,53,0.00,,---,0.00,VWS V14.01,2013-03-05 04:40:00,
2013-03-04 23:41:00,38.8,23.2,30.00,East,90,0.0,0.0,53,0.00,,---,0.00,VWS V14.01,2013-03-05 04:41:00,
2013-03-04 23:45:00,37.8,22.2,29.97,SSW,202,0.0,0.0,53,0.00,,---,0.00,VWS V14.01,2013-03-05 04:45:00,
2013-03-04 23:46:00,39.2,23.1,29.97,SSE,158,0.0,0.0,52,0.00,,---,0.00,VWS V14.01,2013-03-05 04:46:00,
2013-03-04 23:50:00,37.8,22.6,29.97,SSW,202,0.0,0.0,54,0.00,,---,0.00,VWS V14.01,2013-03-05 04:50:00,
2013-03-04 23:51:00,39.6,23.9,29.97,SSE,158,0.0,0.0,53,0.00,,---,0.00,VWS V14.01,2013-03-05 04:51:00,
2013-03-04 23:55:00,37.8,22.6,29.97,SSW,202,0.0,0.0,54,0.00,,---,0.00,VWS V14.01,2013-03-05 04:55:00,
2013-03-04 23:56:00,39.6,23.9,29.97,SSE,158,0.0,0.0,53,0.00,,---,0.00,VWS V14.01,2013-03-05 04:56:00,